CZ-2D DEB, 43402

Orbit data source: Space-Track

CZ-2D DEB, 43402 is space debris in SSO originally from a launch on Sat, 29 Sep 2012 UTC launched from the Jiuquan Satellite Launch Center, China (JSC). Debris objects in space refer to the collection of defunct objects orbiting the Earth. Examples of debris include non-operational satellites, rocket bodies, and fragments generated from explosions, collisions, or faulty payload assembly.

Loading next visibility...
Identifier
43402, 2012-052B
Orbit
SSO
Last TLE update
1 day ago
Origin
Manufacturer
SAST
Mission
Spacecraft
Bus & Motor
Unknown
Mass
Unknown
Launch date (UTC)
2012-09-29 (13 years ago)
Launch vehicle
Unknown
Launch site
Jiuquan Satellite Launch Center, China (JSC)
Object type
Payload
Rocket body
Debris
Shape & HBR
Unknown
Radar Cross Section
Small (<0.1 m²)

Expand to show TLE details & history

TLE from 1 day ago
0 CZ-2D DEB
1 43402U 12052B   25186.25228040  .00001219  00000-0  32903-3 0  9991
2 43402  98.0736 298.0695 0210509  16.1396 344.6364 14.37283028604895
Epoch: 2025-07-05T06:03Z
TLE epoch observation values (Epoch: 2025-07-05T06:03:17.026Z)
Latitude
-0.00001°
Longitude
-76.24443°
Altitude
625.602 km
Speed
7.622 km/s
True Right ascension
19h 52m 16s
True Declination
0° 00' 00"
Sunlit
Object was in full shadow at epoch
Visualization orbit readout
Latitude
10.79818°
Longitude
106.30934°
Altitude
906.759 km
Speed
7.328 km/s
Apparent Right ascension
07h 57m 57s
Apparent Declination
-12° 41' 25"
Sunlit
Object is in daylight
Visualization observer readout
Local Sidereal Time
19:51:19
Azimuth
356.467° N
Elevation
-62.735°
Doppler factor
1
Orbital elements
Apogee altitude
914.954 km
Perigee altitude
614.233 km
Semi-major axis
7,142.73 km
Eccentricity
0.02105
Inclination
98.0736°
RAAN
298.0695°
Arg. of periapsis
16.1396°
True anomaly
Unknown
Mean anomaly
344.6364°
Eccentric anomaly
Unknown
Mean motion
3.5954 °/min
Orbital period
100.13 mins
BSTAR
0.00032903
Loading maneuver chart data...
Loading SW <> Apogee altitude chart data...
Loading historical data...
Loading historical data...
Loading historical data...
Loading historical data...
Loading historical data...
Loading historical data...
Loading historical data...
Other satellites on launch #52 in the year 2012 (2012-09-29 UTC)

CZ-2D DEB Visibility forecast

Observer location: undefined°, undefined°

Span
Click to sort rows by Start time (UTC) header in descending order
Start Az.
Max El. time (UTC)
Max El. Az.
Max El.
End time (UTC)
End Az.
8 mins2025-07-06 19:23:34.547Z43.037° NE2025-07-06 19:27:34.547Z98.463° ESE24.738°2025-07-06 19:31:34.547Z148.83° SSE
9 mins2025-07-06 21:02:34.547Z351.343° N2025-07-06 21:06:34.547Z286.88° WNW32.507°2025-07-06 21:11:34.547Z222.889° SW
6 mins2025-07-07 06:39:34.547Z112.641° SE2025-07-07 06:41:34.547Z76.513° E23.645°2025-07-07 06:45:34.547Z12.084° NNE
|